Regional Weather Roundup
Issued by NWS

Home | Current Version | Previous Version | Graphics & Text | Print | Product List | Glossary Off
Versions: 1 2 3 4 5 6 7 8 9 10 11 12 13 14 15 16 17 18 19 20 21 22 23 24 25 26 27 28 29 30 31 32 33 34 35 36 37 38 39 40 41 42 43 44 45 46 47 48 49 50

000
ASUS43 KDMX 251007
RWRIA

WEATHER ROUNDUP FOR IOWA
NATIONAL WEATHER SERVICE DES MOINES IA
500 AM CDT SAT APR 25 2015

NOTE: "FAIR" INDICATES FEW OR NO CLOUDS BELOW 12,000 FEET WITH NO
SIGNIFICANT WEATHER AND/OR OBSTRUCTIONS TO VISIBILITY.

* - THESE STATIONS ARE NOT NWS STATIONS...THUS NOT UNDER NWS
QUALITY CONTROL.  THEY ALSO DO NOT REPORT WEATHER SUCH
AS PRECIPITATION OR FOG.

IAZ001>003-012>014-020>022-031>034-043>046-251100-
   NORTHWEST IOWA

CITY           SKY/WX    TMP DP  RH WIND       PRES   REMARKS
CARROLL *      CLOUDY    46  45  93 E18       29.56R
CHEROKEE *     CLOUDY    45  45 100 NE13G21   29.60R FOG
DENISON *      CLOUDY    46  46 100 E13G20    29.52S
LE MARS *      CLOUDY    48  45  87 NE17      29.60R
ORANGE CITY *  CLOUDY    45  39  81 E12G22    29.60S
SHELDON *      CLOUDY    45  43  93 E17G25    29.61S
SIOUX CITY     CLOUDY    49  44  83 E17G24    29.55R
SPENCER        CLOUDY    45  41  86 E18G24    29.63F
STORM LAKE *   CLOUDY    45  45 100 E18G28    29.59S FOG
$$

IAZ055>058-069>071-079>083-090>094-251100-
   SOUTHWEST IOWA

CITY           SKY/WX    TMP DP  RH WIND       PRES   REMARKS
ATLANTIC *     LGT RAIN  50  50 100 E14       29.50R
AUDUBON *      LGT RAIN  46  43  87 E13G21    29.54F
CLARINDA *     CLOUDY    55  54  94 E12       29.45S
COUNCIL BLFS * LGT RAIN  52  52 100 E16       29.47R
CRESTON *      LGT RAIN  52  52 100 NE16      29.48F
HARLAN  *      HVY RAIN  48  48 100 NE10      29.54F
LAMONI         CLOUDY    55  51  86 E6        29.47F
RED OAK *      DRIZZLE   54  54 100 E15       29.45R
SHENANDOAH *   CLOUDY    55  55 100 E7G17     29.45R
$$

IAZ047>049-059>061-072>074-084-251100-
   CENTRAL IOWA

CITY           SKY/WX    TMP DP  RH WIND       PRES   REMARKS
AMES           CLOUDY    45  40  82 E16       29.60R HAZE
ANKENY *       CLOUDY    46  43  87 E13G21    29.57S
CHARITON *     CLOUDY    52  52 100 E15G21    29.52F
DES MOINES     CLOUDY    49  43  80 E13G29    29.56S
GRINNELL*      CLOUDY    43  41  93 E21G26    29.62S FOG
KNOXVILLE *    LGT RAIN  46  45  93 E12G23    29.55F
MARSHALLTOWN   CLOUDY    43  40  89 E25G31    29.63R
PELLA *        RAIN      46  46 100 E15G26    29.58F
PERRY *        CLOUDY    48  43  81 E18G24    29.56R
$$

IAZ004>006-015-016-023>025-035-036-251100-
   NORTH CENTRAL IOWA

CITY           SKY/WX    TMP DP  RH WIND       PRES   REMARKS
ALGONA *       CLOUDY    43  41  93 E17G25    29.65F
CLARION *      CLOUDY    43  43 100 E23       29.64R
ESTHERVILLE    CLOUDY    42  39  89 E18       29.66S
FORT DODGE *   CLOUDY    45  39  81 E21G26    29.61S
MASON CITY     CLOUDY    42  38  85 E15       29.70S
FOREST CITY *  CLOUDY    41  37  87 E14G22    29.68S
IOWA FALLS *   CLOUDY    43  39  87 E18G28    29.65S
$$

IAZ007>011-017>019-026>030-037>042-050>054-066-251100-
   NORTHEAST IOWA

CITY           SKY/WX    TMP DP  RH WIND       PRES   REMARKS
CEDAR RAPIDS   CLOUDY    42  40  92 E23G29    29.66S
CHARLES CITY * CLOUDY    41  39  93 E17G23    29.71F
CLINTON *      MOCLDY    43  37  81 E14       29.75F
DECORAH *      CLOUDY    41  36  81 E18       29.74F
DUBUQUE        CLOUDY    41  35  79 E12       29.75S
MONTICELLO *   CLOUDY    43  39  87 E15G24    29.70F
OELWEIN *      CLOUDY    41  37  87 E17G23    29.70F
WATERLOO       CLOUDY    42  37  82 E21G26    29.68F
$$

IAZ064-065-067-068-078-251100-
   EAST CENTRAL IOWA

CITY           SKY/WX    TMP DP  RH WIND       PRES   REMARKS
DAVENPORT      RAIN      42  38  85 E20G30    29.69F FOG
IOWA CITY      LGT RAIN  43  41  93 E12G17    29.68S FOG
MT. PLEASANT * RAIN      46  46 100 NE16      29.60F
MUSCATINE *    CLOUDY    45  43  93 E15       29.67S
QUAD CITIES    RAIN      42  39  89 E20       29.69F FOG
$$

IAZ062-063-075>077-085>089-095>099-251100-
   SOUTHEAST IOWA

CITY           SKY/WX    TMP DP  RH WIND       PRES   REMARKS
BURLINGTON     CLOUDY    49  47  93 E12       29.60F FOG
FAIRFIELD *    LGT RAIN  46  45  93 E17       29.59F
FORT MADISON * CLOUDY    52  46  82 E15       29.59F
KEOKUK *       CLOUDY    52  50  93 E7G14     29.59R
OSKALOOSA *    LGT RAIN  46  45  93 E16       29.59F
CENTERVILLE *  LGT RAIN  52  52 100 E9        29.53F
OTTUMWA        LGT RAIN  48  46  93 E14       29.57S
WASHINGTON *   LGT RAIN  45  45 100 E21       29.62S
$$

ABBREVIATIONS USED IN REMARKS
   TC - TEMPERATURES IN CELSIUS
  WCI - WIND CHILL INDEX
   HX - HEAT INDEX
  VSB - VISIBILITY
$$




USA.gov is the U.S. government's official web portal to all federal, state and local government web resources and services.